Hourly Data Report for September 12, 2017

All times are specified in Local Standard Time (LST). Add 1 hour to adjust for Daylight Saving Time where and when it is observed.

WOODSTOCK NEWBRIDGE
NEW BRUNSWICK

46°09'08.000" N
67°32'34.000" W
154.00 m
8105603
71606
EWD

Download Data

Hourly Data (September 2017)
Hourly Data Report for September 12, 2017
Temp Definition
°C
Dew Point Temp Definition
°C
Rel Hum Definition
%
Wind Dir Definition
10's deg

Wind Spd Definition
km/h
Visibility Definition
km
Stn Press Definition
kPa
Hmdx Definition


Wind Chill Definition


Weather Definition


TIME
00:00 8.9 8.1 94 0 1   99.87     LegendNANA
01:00 8.6 7.5 93   0   99.83     LegendNANA
02:00 7.4 6.6 95   0   99.81     LegendNANA
03:00 6.5 5.7 95   0   99.75     LegendNANA
04:00 5.8 4.9 94   0   99.73     LegendNANA
05:00 5.4 4.4 93   0   99.69     LegendNANA
06:00 5.4 5.0 97 0 1   99.62     LegendNANA
07:00 7.6 7.3 98   0   99.59     LegendNANA
08:00 10.6 10.2 98   0   99.58     LegendNANA
09:00 14.1 10.2 78 26 9   99.52     LegendNANA
10:00 17.0 11.5 70 28 7   99.48     LegendNANA
11:00 18.8 11.7 63 28 5   99.40     LegendNANA
12:00 20.4 11.6 57 24 8   99.29     LegendNANA
13:00 22.3 11.7 51 23 8   99.19     LegendNANA
14:00 24.3 8.9 37 25 11   99.12 25   LegendNANA
15:00 24.5 8.3 36 25 15   99.02 25   LegendNANA
16:00 24.7 8.7 36 28 12   98.98 25   LegendNANA
17:00 23.6 10.7 44 29 7   98.94 25   LegendNANA
18:00 22.6 11.4 49 29 6   98.92 25   LegendNANA
19:00 21.3 12.0 55 29 5   98.93     LegendNANA
20:00 19.5 12.2 63 28 6   98.96     LegendNANA
21:00 14.4 11.6 84   0   98.99     LegendNANA
22:00 14.4 11.9 85 28 5   99.02     LegendNANA
23:00 12.0 10.8 93 28 2   99.03     LegendNANA

Notes on Data Quality.

Legend

  • E = Estimated
  • M = Missing
  • NA = Not Available
  • ‡ = Partner data that is not subject to review by the National Climate Archives
Date modified: